owner,sensor,date,latitude,longitude,sea_surface_height_above_sea_level,qcFlag 
COMPS,ioos:station:USF.COMPS:FHP:1,2011-11-01T00:00:00Z,28.1530,-82.8010,1.448,1111122 
COMPS,ioos:station:USF.COMPS:FHP:1,2011-11-01T00:06:00Z,28.1530,-82.8010,1.434,1111122 
COMPS,ioos:station:USF.COMPS:FHP:1,2011-11-01T00:12:00Z,28.1530,-82.8010,1.434,1111122 
COMPS,ioos:station:USF.COMPS:FHP:1,2011-11-01T00:18:00Z,28.1530,-82.8010,1.425,1111122 
COMPS,ioos:station:USF.COMPS:FHP:1,2011-11-01T00:36:00Z,28.1530,-82.8010,1.417,1111122 
COMPS,ioos:station:USF.COMPS:FHP:1,2011-11-01T00:48:00Z,28.1530,-82.8010,1.411,1111122 
COMPS,ioos:station:USF.COMPS:FHP:1,2011-11-01T00:54:00Z,28.1530,-82.8010,1.407,1111122 
COMPS,ioos:station:USF.COMPS:FHP:1,2011-11-01T01:00:00Z,28.1530,-82.8010,1.4,1111122 
COMPS,ioos:station:USF.COMPS:FHP:1,2011-11-01T01:06:00Z,28.1530,-82.8010,1.392,1111122 
COMPS,ioos:station:USF.COMPS:FHP:1,2011-11-01T01:12:00Z,28.1530,-82.8010,1.394,1111122 
COMPS,ioos:station:USF.COMPS:FHP:1,2011-11-01T01:18:00Z,28.1530,-82.8010,1.38,1111122 
COMPS,ioos:station:USF.COMPS:FHP:1,2011-11-01T01:30:00Z,28.1530,-82.8010,1.371,1111122 
COMPS,ioos:station:USF.COMPS:FHP:1,2011-11-01T01:48:00Z,28.1530,-82.8010,1.36,1111122 
COMPS,ioos:station:USF.COMPS:FHP:1,2011-11-01T01:54:00Z,28.1530,-82.8010,1.356,1111122 
COMPS,ioos:station:USF.COMPS:FHP:1,2011-11-01T04:00:00Z,28.1530,-82.8010,1.504,1111122 
COMPS,ioos:station:USF.COMPS:FHP:1,2011-11-01T04:12:00Z,28.1530,-82.8010,1.516,1111122 
COMPS,ioos:station:USF.COMPS:FHP:1,2011-11-01T04:24:00Z,28.1530,-82.8010,1.53,1111122 
COMPS,ioos:station:USF.COMPS:FHP:1,2011-11-01T04:30:00Z,28.1530,-82.8010,1.537,1111122 
COMPS,ioos:station:USF.COMPS:FHP:1,2011-11-01T04:42:00Z,28.1530,-82.8010,1.553,1111122 
COMPS,ioos:station:USF.COMPS:FHP:1,2011-11-01T04:48:00Z,28.1530,-82.8010,1.56,1111122 
COMPS,ioos:station:USF.COMPS:FHP:1,2011-11-01T04:54:00Z,28.1530,-82.8010,1.574,1111122 
COMPS,ioos:station:USF.COMPS:FHP:1,2011-11-01T05:00:00Z,28.1530,-82.8010,1.579,1111122 
COMPS,ioos:station:USF.COMPS:FHP:1,2011-11-01T05:06:00Z,28.1530,-82.8010,1.59,1111122 
COMPS,ioos:station:USF.COMPS:FHP:1,2011-11-01T05:12:00Z,28.1530,-82.8010,1.6,1111122 
COMPS,ioos:station:USF.COMPS:FHP:1,2011-11-01T05:18:00Z,28.1530,-82.8010,1.608,1111122 
COMPS,ioos:station:USF.COMPS:FHP:1,2011-11-01T05:24:00Z,28.1530,-82.8010,1.615,1111122 
COMPS,ioos:station:USF.COMPS:FHP:1,2011-11-01T05:36:00Z,28.1530,-82.8010,1.63,1111122 
COMPS,ioos:station:USF.COMPS:FHP:1,2011-11-01T05:42:00Z,28.1530,-82.8010,1.638,1111122 
COMPS,ioos:station:USF.COMPS:FHP:1,2011-11-01T05:48:00Z,28.1530,-82.8010,1.645,1111122 
COMPS,ioos:station:USF.COMPS:FHP:1,2011-11-01T05:54:00Z,28.1530,-82.8010,1.645,1111122 
COMPS,ioos:station:USF.COMPS:FHP:1,2011-11-01T06:00:00Z,28.1530,-82.8010,1.655,1111122 
COMPS,ioos:station:USF.COMPS:FHP:1,2011-11-01T06:06:00Z,28.1530,-82.8010,1.659,1111122 
COMPS,ioos:station:USF.COMPS:FHP:1,2011-11-01T06:12:00Z,28.1530,-82.8010,1.655,1111122 
COMPS,ioos:station:USF.COMPS:FHP:1,2011-11-01T06:24:00Z,28.1530,-82.8010,1.655,1111122 
COMPS,ioos:station:USF.COMPS:FHP:1,2011-11-01T06:30:00Z,28.1530,-82.8010,1.661,1111122 
COMPS,ioos:station:USF.COMPS:FHP:1,2011-11-01T06:42:00Z,28.1530,-82.8010,1.664,1111122 
COMPS,ioos:station:USF.COMPS:FHP:1,2011-11-01T06:48:00Z,28.1530,-82.8010,1.659,1111122 
COMPS,ioos:station:USF.COMPS:FHP:1,2011-11-01T07:06:00Z,28.1530,-82.8010,1.672,1111122 
COMPS,ioos:station:USF.COMPS:FHP:1,2011-11-01T07:18:00Z,28.1530,-82.8010,1.665,1111122 
COMPS,ioos:station:USF.COMPS:FHP:1,2011-11-01T07:24:00Z,28.1530,-82.8010,1.666,1111122 
COMPS,ioos:station:USF.COMPS:FHP:1,2011-11-01T07:30:00Z,28.1530,-82.8010,1.653,1111122 
COMPS,ioos:station:USF.COMPS:FHP:1,2011-11-01T07:36:00Z,28.1530,-82.8010,1.652,1111122 
COMPS,ioos:station:USF.COMPS:FHP:1,2011-11-01T07:42:00Z,28.1530,-82.8010,1.649,1111122 
COMPS,ioos:station:USF.COMPS:FHP:1,2011-11-01T07:48:00Z,28.1530,-82.8010,1.645,1111122 
COMPS,ioos:station:USF.COMPS:FHP:1,2011-11-01T07:54:00Z,28.1530,-82.8010,1.641,1111122 
COMPS,ioos:station:USF.COMPS:FHP:1,2011-11-01T08:00:00Z,28.1530,-82.8010,1.628,1111122 
COMPS,ioos:station:USF.COMPS:FHP:1,2011-11-01T08:06:00Z,28.1530,-82.8010,1.622,1111122 
COMPS,ioos:station:USF.COMPS:FHP:1,2011-11-01T08:12:00Z,28.1530,-82.8010,1.618,1111122 
COMPS,ioos:station:USF.COMPS:FHP:1,2011-11-01T08:18:00Z,28.1530,-82.8010,1.611,1111122 
COMPS,ioos:station:USF.COMPS:FHP:1,2011-11-01T08:24:00Z,28.1530,-82.8010,1.599,1111122 
COMPS,ioos:station:USF.COMPS:FHP:1,2011-11-01T08:30:00Z,28.1530,-82.8010,1.598,1111122 
COMPS,ioos:station:USF.COMPS:FHP:1,2011-11-01T08:36:00Z,28.1530,-82.8010,1.587,1111122 
COMPS,ioos:station:USF.COMPS:FHP:1,2011-11-01T08:42:00Z,28.1530,-82.8010,1.58,1111122 
COMPS,ioos:station:USF.COMPS:FHP:1,2011-11-01T08:48:00Z,28.1530,-82.8010,1.571,1111122 
COMPS,ioos:station:USF.COMPS:FHP:1,2011-11-01T08:54:00Z,28.1530,-82.8010,1.561,1111122 
COMPS,ioos:station:USF.COMPS:FHP:1,2011-11-01T09:00:00Z,28.1530,-82.8010,1.554,1111122 
COMPS,ioos:station:USF.COMPS:FHP:1,2011-11-01T09:06:00Z,28.1530,-82.8010,1.544,1111122 
COMPS,ioos:station:USF.COMPS:FHP:1,2011-11-01T09:12:00Z,28.1530,-82.8010,1.538,1111122 
COMPS,ioos:station:USF.COMPS:FHP:1,2011-11-01T09:18:00Z,28.1530,-82.8010,1.526,1111122 
COMPS,ioos:station:USF.COMPS:FHP:1,2011-11-01T09:24:00Z,28.1530,-82.8010,1.517,1111122 
COMPS,ioos:station:USF.COMPS:FHP:1,2011-11-01T09:30:00Z,28.1530,-82.8010,1.51,1111122 
COMPS,ioos:station:USF.COMPS:FHP:1,2011-11-01T09:36:00Z,28.1530,-82.8010,1.504,1111122 
COMPS,ioos:station:USF.COMPS:FHP:1,2011-11-01T09:42:00Z,28.1530,-82.8010,1.496,1111122 
COMPS,ioos:station:USF.COMPS:FHP:1,2011-11-01T09:48:00Z,28.1530,-82.8010,1.482,1111122 
COMPS,ioos:station:USF.COMPS:FHP:1,2011-11-01T09:54:00Z,28.1530,-82.8010,1.47,1111122 
COMPS,ioos:station:USF.COMPS:FHP:1,2011-11-01T10:00:00Z,28.1530,-82.8010,1.457,1111122 
COMPS,ioos:station:USF.COMPS:FHP:1,2011-11-01T10:06:00Z,28.1530,-82.8010,1.448,1111122 
COMPS,ioos:station:USF.COMPS:FHP:1,2011-11-01T10:12:00Z,28.1530,-82.8010,1.437,1111122 
COMPS,ioos:station:USF.COMPS:FHP:1,2011-11-01T10:18:00Z,28.1530,-82.8010,1.428,1111122 
COMPS,ioos:station:USF.COMPS:FHP:1,2011-11-01T10:24:00Z,28.1530,-82.8010,1.415,1111122 
COMPS,ioos:station:USF.COMPS:FHP:1,2011-11-01T10:30:00Z,28.1530,-82.8010,1.404,1111122 
COMPS,ioos:station:USF.COMPS:FHP:1,2011-11-01T10:42:00Z,28.1530,-82.8010,1.385,1111122 
COMPS,ioos:station:USF.COMPS:FHP:1,2011-11-01T10:48:00Z,28.1530,-82.8010,1.373,1111122 
COMPS,ioos:station:USF.COMPS:FHP:1,2011-11-01T10:54:00Z,28.1530,-82.8010,1.361,1111122 
COMPS,ioos:station:USF.COMPS:FHP:1,2011-11-01T11:00:00Z,28.1530,-82.8010,1.349,1111122 
COMPS,ioos:station:USF.COMPS:FHP:1,2011-11-01T11:06:00Z,28.1530,-82.8010,1.336,1111122 
COMPS,ioos:station:USF.COMPS:FHP:1,2011-11-01T11:12:00Z,28.1530,-82.8010,1.32,1111122 
COMPS,ioos:station:USF.COMPS:FHP:1,2011-11-01T11:18:00Z,28.1530,-82.8010,1.307,1111122 
COMPS,ioos:station:USF.COMPS:FHP:1,2011-11-01T11:24:00Z,28.1530,-82.8010,1.292,1111122 
COMPS,ioos:station:USF.COMPS:FHP:1,2011-11-01T11:30:00Z,28.1530,-82.8010,1.279,1111122 
COMPS,ioos:station:USF.COMPS:FHP:1,2011-11-01T11:36:00Z,28.1530,-82.8010,1.263,1111122 
COMPS,ioos:station:USF.COMPS:FHP:1,2011-11-01T11:42:00Z,28.1530,-82.8010,1.249,1111122 
COMPS,ioos:station:USF.COMPS:FHP:1,2011-11-01T11:48:00Z,28.1530,-82.8010,1.236,1111122 
COMPS,ioos:station:USF.COMPS:FHP:1,2011-11-01T11:54:00Z,28.1530,-82.8010,1.225,1111122 
COMPS,ioos:station:USF.COMPS:FHP:1,2011-11-01T12:00:00Z,28.1530,-82.8010,1.21,1111122 
COMPS,ioos:station:USF.COMPS:FHP:1,2011-11-01T12:06:00Z,28.1530,-82.8010,1.196,1111122 
COMPS,ioos:station:USF.COMPS:FHP:1,2011-11-01T12:12:00Z,28.1530,-82.8010,1.181,1111122 
COMPS,ioos:station:USF.COMPS:FHP:1,2011-11-01T12:18:00Z,28.1530,-82.8010,1.171,1111122 
COMPS,ioos:station:USF.COMPS:FHP:1,2011-11-01T12:24:00Z,28.1530,-82.8010,1.157,1111122 
COMPS,ioos:station:USF.COMPS:FHP:1,2011-11-01T12:30:00Z,28.1530,-82.8010,1.144,1111122 
COMPS,ioos:station:USF.COMPS:FHP:1,2011-11-01T12:36:00Z,28.1530,-82.8010,1.13,1111122 
COMPS,ioos:station:USF.COMPS:FHP:1,2011-11-01T12:42:00Z,28.1530,-82.8010,1.119,1111122 
COMPS,ioos:station:USF.COMPS:FHP:1,2011-11-01T12:48:00Z,28.1530,-82.8010,1.104,1111122 
COMPS,ioos:station:USF.COMPS:FHP:1,2011-11-01T12:54:00Z,28.1530,-82.8010,1.093,1111122 
COMPS,ioos:station:USF.COMPS:FHP:1,2011-11-01T14:00:00Z,28.1530,-82.8010,0.98,1111122 
COMPS,ioos:station:USF.COMPS:FHP:1,2011-11-01T14:06:00Z,28.1530,-82.8010,0.972,1111122 
COMPS,ioos:station:USF.COMPS:FHP:1,2011-11-01T14:12:00Z,28.1530,-82.8010,0.966,1111122 
COMPS,ioos:station:USF.COMPS:FHP:1,2011-11-01T14:18:00Z,28.1530,-82.8010,0.956,1111122 
COMPS,ioos:station:USF.COMPS:FHP:1,2011-11-01T14:24:00Z,28.1530,-82.8010,0.951,1111122 
COMPS,ioos:station:USF.COMPS:FHP:1,2011-11-01T14:30:00Z,28.1530,-82.8010,0.944,1111122 
COMPS,ioos:station:USF.COMPS:FHP:1,2011-11-01T14:36:00Z,28.1530,-82.8010,0.938,1111122 
COMPS,ioos:station:USF.COMPS:FHP:1,2011-11-01T14:42:00Z,28.1530,-82.8010,0.932,1111122 
COMPS,ioos:station:USF.COMPS:FHP:1,2011-11-01T14:48:00Z,28.1530,-82.8010,0.928,1111122 
COMPS,ioos:station:USF.COMPS:FHP:1,2011-11-01T14:54:00Z,28.1530,-82.8010,0.921,1111122 
COMPS,ioos:station:USF.COMPS:FHP:1,2011-11-01T15:00:00Z,28.1530,-82.8010,0.915,1111122 
COMPS,ioos:station:USF.COMPS:FHP:1,2011-11-01T15:06:00Z,28.1530,-82.8010,0.908,1111122 
COMPS,ioos:station:USF.COMPS:FHP:1,2011-11-01T15:12:00Z,28.1530,-82.8010,0.904,1111122 
COMPS,ioos:station:USF.COMPS:FHP:1,2011-11-01T15:18:00Z,28.1530,-82.8010,0.901,1111122 
COMPS,ioos:station:USF.COMPS:FHP:1,2011-11-01T15:24:00Z,28.1530,-82.8010,0.895,1111122 
COMPS,ioos:station:USF.COMPS:FHP:1,2011-11-01T15:30:00Z,28.1530,-82.8010,0.891,1111122 
COMPS,ioos:station:USF.COMPS:FHP:1,2011-11-01T15:36:00Z,28.1530,-82.8010,0.888,1111122 
COMPS,ioos:station:USF.COMPS:FHP:1,2011-11-01T15:42:00Z,28.1530,-82.8010,0.884,1111122 
COMPS,ioos:station:USF.COMPS:FHP:1,2011-11-01T15:48:00Z,28.1530,-82.8010,0.882,1111122 
COMPS,ioos:station:USF.COMPS:FHP:1,2011-11-01T15:54:00Z,28.1530,-82.8010,0.879,1111122 
COMPS,ioos:station:USF.COMPS:FHP:1,2011-11-01T17:00:00Z,28.1530,-82.8010,0.918,1111122 
COMPS,ioos:station:USF.COMPS:FHP:1,2011-11-01T17:06:00Z,28.1530,-82.8010,0.929,1111122 
COMPS,ioos:station:USF.COMPS:FHP:1,2011-11-01T17:12:00Z,28.1530,-82.8010,0.941,1111122 
COMPS,ioos:station:USF.COMPS:FHP:1,2011-11-01T17:18:00Z,28.1530,-82.8010,0.955,1111122 
COMPS,ioos:station:USF.COMPS:FHP:1,2011-11-01T17:24:00Z,28.1530,-82.8010,0.969,1111122 
COMPS,ioos:station:USF.COMPS:FHP:1,2011-11-01T17:30:00Z,28.1530,-82.8010,0.985,1111122 
COMPS,ioos:station:USF.COMPS:FHP:1,2011-11-01T17:36:00Z,28.1530,-82.8010,0.997,1111122 
COMPS,ioos:station:USF.COMPS:FHP:1,2011-11-01T17:42:00Z,28.1530,-82.8010,1.011,1111122 
COMPS,ioos:station:USF.COMPS:FHP:1,2011-11-01T17:48:00Z,28.1530,-82.8010,1.023,1111122 
COMPS,ioos:station:USF.COMPS:FHP:1,2011-11-01T17:54:00Z,28.1530,-82.8010,1.033,1111122 
COMPS,ioos:station:USF.COMPS:FHP:1,2011-11-01T18:00:00Z,28.1530,-82.8010,1.048,1111122 
COMPS,ioos:station:USF.COMPS:FHP:1,2011-11-01T18:06:00Z,28.1530,-82.8010,1.06,1111122 
COMPS,ioos:station:USF.COMPS:FHP:1,2011-11-01T18:12:00Z,28.1530,-82.8010,1.07,1111122 
COMPS,ioos:station:USF.COMPS:FHP:1,2011-11-01T18:18:00Z,28.1530,-82.8010,1.085,1111122 
COMPS,ioos:station:USF.COMPS:FHP:1,2011-11-01T18:24:00Z,28.1530,-82.8010,1.104,1111122 
COMPS,ioos:station:USF.COMPS:FHP:1,2011-11-01T18:30:00Z,28.1530,-82.8010,1.124,1111122 
COMPS,ioos:station:USF.COMPS:FHP:1,2011-11-01T18:36:00Z,28.1530,-82.8010,1.141,1111122 
COMPS,ioos:station:USF.COMPS:FHP:1,2011-11-01T18:42:00Z,28.1530,-82.8010,1.16,1111122 
COMPS,ioos:station:USF.COMPS:FHP:1,2011-11-01T18:48:00Z,28.1530,-82.8010,1.173,1111122 
COMPS,ioos:station:USF.COMPS:FHP:1,2011-11-01T18:54:00Z,28.1530,-82.8010,1.189,1111122 
COMPS,ioos:station:USF.COMPS:FHP:1,2011-11-01T19:00:00Z,28.1530,-82.8010,1.208,1111122 
COMPS,ioos:station:USF.COMPS:FHP:1,2011-11-01T19:06:00Z,28.1530,-82.8010,1.226,1111122 
COMPS,ioos:station:USF.COMPS:FHP:1,2011-11-01T19:12:00Z,28.1530,-82.8010,1.24,1111122 
COMPS,ioos:station:USF.COMPS:FHP:1,2011-11-01T19:18:00Z,28.1530,-82.8010,1.252,1111122 
COMPS,ioos:station:USF.COMPS:FHP:1,2011-11-01T19:24:00Z,28.1530,-82.8010,1.267,1111122 
COMPS,ioos:station:USF.COMPS:FHP:1,2011-11-01T19:30:00Z,28.1530,-82.8010,1.283,1111122 
COMPS,ioos:station:USF.COMPS:FHP:1,2011-11-01T19:36:00Z,28.1530,-82.8010,1.296,1111122 
COMPS,ioos:station:USF.COMPS:FHP:1,2011-11-01T19:42:00Z,28.1530,-82.8010,1.307,1111122 
COMPS,ioos:station:USF.COMPS:FHP:1,2011-11-01T19:48:00Z,28.1530,-82.8010,1.316,1111122 
COMPS,ioos:station:USF.COMPS:FHP:1,2011-11-01T19:54:00Z,28.1530,-82.8010,1.332,1111122 
COMPS,ioos:station:USF.COMPS:FHP:1,2011-11-01T20:00:00Z,28.1530,-82.8010,1.346,1111122 
COMPS,ioos:station:USF.COMPS:FHP:1,2011-11-01T20:06:00Z,28.1530,-82.8010,1.36,1111122 
COMPS,ioos:station:USF.COMPS:FHP:1,2011-11-01T20:12:00Z,28.1530,-82.8010,1.374,1111122 
COMPS,ioos:station:USF.COMPS:FHP:1,2011-11-01T20:18:00Z,28.1530,-82.8010,1.384,1111122 
COMPS,ioos:station:USF.COMPS:FHP:1,2011-11-01T20:24:00Z,28.1530,-82.8010,1.394,1111122 
COMPS,ioos:station:USF.COMPS:FHP:1,2011-11-01T20:30:00Z,28.1530,-82.8010,1.405,1111122 
COMPS,ioos:station:USF.COMPS:FHP:1,2011-11-01T20:36:00Z,28.1530,-82.8010,1.411,1111122 
COMPS,ioos:station:USF.COMPS:FHP:1,2011-11-01T20:42:00Z,28.1530,-82.8010,1.425,1111122 
COMPS,ioos:station:USF.COMPS:FHP:1,2011-11-01T20:48:00Z,28.1530,-82.8010,1.434,1111122 
COMPS,ioos:station:USF.COMPS:FHP:1,2011-11-01T20:54:00Z,28.1530,-82.8010,1.445,1111122 
COMPS,ioos:station:USF.COMPS:FHP:1,2011-11-01T21:00:00Z,28.1530,-82.8010,1.452,1111122 
COMPS,ioos:station:USF.COMPS:FHP:1,2011-11-01T21:06:00Z,28.1530,-82.8010,1.465,1111122 
COMPS,ioos:station:USF.COMPS:FHP:1,2011-11-01T21:12:00Z,28.1530,-82.8010,1.473,1111122 
COMPS,ioos:station:USF.COMPS:FHP:1,2011-11-01T21:18:00Z,28.1530,-82.8010,1.473,1111122 
COMPS,ioos:station:USF.COMPS:FHP:1,2011-11-01T21:24:00Z,28.1530,-82.8010,1.484,1111122 
COMPS,ioos:station:USF.COMPS:FHP:1,2011-11-01T21:30:00Z,28.1530,-82.8010,1.482,1111122 
COMPS,ioos:station:USF.COMPS:FHP:1,2011-11-01T21:36:00Z,28.1530,-82.8010,1.491,1111122 
COMPS,ioos:station:USF.COMPS:FHP:1,2011-11-01T21:42:00Z,28.1530,-82.8010,1.494,1111122 
COMPS,ioos:station:USF.COMPS:FHP:1,2011-11-01T21:48:00Z,28.1530,-82.8010,1.5,1111122 
COMPS,ioos:station:USF.COMPS:FHP:1,2011-11-01T21:54:00Z,28.1530,-82.8010,1.501,1111122 
COMPS,ioos:station:USF.COMPS:FHP:1,2011-11-01T22:00:00Z,28.1530,-82.8010,1.507,1111122 
COMPS,ioos:station:USF.COMPS:FHP:1,2011-11-01T22:06:00Z,28.1530,-82.8010,1.504,1111122 
COMPS,ioos:station:USF.COMPS:FHP:1,2011-11-01T22:12:00Z,28.1530,-82.8010,1.503,1111122 
COMPS,ioos:station:USF.COMPS:FHP:1,2011-11-01T22:18:00Z,28.1530,-82.8010,1.501,1111122 
COMPS,ioos:station:USF.COMPS:FHP:1,2011-11-01T22:24:00Z,28.1530,-82.8010,1.498,1111122 
COMPS,ioos:station:USF.COMPS:FHP:1,2011-11-01T22:30:00Z,28.1530,-82.8010,1.494,1111122 
COMPS,ioos:station:USF.COMPS:FHP:1,2011-11-01T22:36:00Z,28.1530,-82.8010,1.487,1111122 
COMPS,ioos:station:USF.COMPS:FHP:1,2011-11-01T22:48:00Z,28.1530,-82.8010,1.476,1111122 
COMPS,ioos:station:USF.COMPS:FHP:1,2011-11-01T22:54:00Z,28.1530,-82.8010,1.474,1111122 
COMPS,ioos:station:USF.COMPS:FHP:1,2011-11-01T23:00:00Z,28.1530,-82.8010,1.468,1111122 
COMPS,ioos:station:USF.COMPS:FHP:1,2011-11-01T23:06:00Z,28.1530,-82.8010,1.457,1111122 
COMPS,ioos:station:USF.COMPS:FHP:1,2011-11-01T23:12:00Z,28.1530,-82.8010,1.454,1111122 
COMPS,ioos:station:USF.COMPS:FHP:1,2011-11-01T23:18:00Z,28.1530,-82.8010,1.441,1111122 
COMPS,ioos:station:USF.COMPS:FHP:1,2011-11-01T23:24:00Z,28.1530,-82.8010,1.434,1111122 
COMPS,ioos:station:USF.COMPS:FHP:1,2011-11-01T23:30:00Z,28.1530,-82.8010,1.428,1111122 
COMPS,ioos:station:USF.COMPS:FHP:1,2011-11-01T23:36:00Z,28.1530,-82.8010,1.419,1111122 
COMPS,ioos:station:USF.COMPS:FHP:1,2011-11-01T23:48:00Z,28.1530,-82.8010,1.411,1111122 
COMPS,ioos:station:USF.COMPS:FHP:1,2011-11-01T23:54:00Z,28.1530,-82.8010,1.404,1111122 
COMPS,ioos:station:USF.COMPS:FHP:1,2011-11-02T01:00:00Z,28.1530,-82.8010,1.329,1111122 
COMPS,ioos:station:USF.COMPS:FHP:1,2011-11-02T01:06:00Z,28.1530,-82.8010,1.319,1111122 
COMPS,ioos:station:USF.COMPS:FHP:1,2011-11-02T01:12:00Z,28.1530,-82.8010,1.312,1111122 
COMPS,ioos:station:USF.COMPS:FHP:1,2011-11-02T01:18:00Z,28.1530,-82.8010,1.302,1111122 
COMPS,ioos:station:USF.COMPS:FHP:1,2011-11-02T01:36:00Z,28.1530,-82.8010,1.292,1111122 
COMPS,ioos:station:USF.COMPS:FHP:1,2011-11-02T01:42:00Z,28.1530,-82.8010,1.284,1111122 
COMPS,ioos:station:USF.COMPS:FHP:1,2011-11-02T01:48:00Z,28.1530,-82.8010,1.278,1111122 
COMPS,ioos:station:USF.COMPS:FHP:1,2011-11-02T02:00:00Z,28.1530,-82.8010,1.266,1111122 
COMPS,ioos:station:USF.COMPS:FHP:1,2011-11-02T02:06:00Z,28.1530,-82.8010,1.265,1111122 
COMPS,ioos:station:USF.COMPS:FHP:1,2011-11-02T02:12:00Z,28.1530,-82.8010,1.256,1111122 
COMPS,ioos:station:USF.COMPS:FHP:1,2011-11-02T02:18:00Z,28.1530,-82.8010,1.255,1111122 
COMPS,ioos:station:USF.COMPS:FHP:1,2011-11-02T02:30:00Z,28.1530,-82.8010,1.244,1111122 
COMPS,ioos:station:USF.COMPS:FHP:1,2011-11-02T02:36:00Z,28.1530,-82.8010,1.244,1111122 
COMPS,ioos:station:USF.COMPS:FHP:1,2011-11-02T02:42:00Z,28.1530,-82.8010,1.241,1111122 
COMPS,ioos:station:USF.COMPS:FHP:1,2011-11-02T02:54:00Z,28.1530,-82.8010,1.235,1111122 
COMPS,ioos:station:USF.COMPS:FHP:1,2011-11-02T04:12:00Z,28.1530,-82.8010,1.281,1111122 
COMPS,ioos:station:USF.COMPS:FHP:1,2011-11-02T04:18:00Z,28.1530,-82.8010,1.289,1111122 
COMPS,ioos:station:USF.COMPS:FHP:1,2011-11-02T04:24:00Z,28.1530,-82.8010,1.292,1111122 
COMPS,ioos:station:USF.COMPS:FHP:1,2011-11-02T04:30:00Z,28.1530,-82.8010,1.301,1111122 
COMPS,ioos:station:USF.COMPS:FHP:1,2011-11-02T04:36:00Z,28.1530,-82.8010,1.305,1111122 
COMPS,ioos:station:USF.COMPS:FHP:1,2011-11-02T04:42:00Z,28.1530,-82.8010,1.312,1111122 
COMPS,ioos:station:USF.COMPS:FHP:1,2011-11-02T04:54:00Z,28.1530,-82.8010,1.323,1111122 
COMPS,ioos:station:USF.COMPS:FHP:1,2011-11-02T05:00:00Z,28.1530,-82.8010,1.329,1111122 
COMPS,ioos:station:USF.COMPS:FHP:1,2011-11-02T05:06:00Z,28.1530,-82.8010,1.342,1111122 
COMPS,ioos:station:USF.COMPS:FHP:1,2011-11-02T05:12:00Z,28.1530,-82.8010,1.347,1111122 
COMPS,ioos:station:USF.COMPS:FHP:1,2011-11-02T05:18:00Z,28.1530,-82.8010,1.36,1111122 
COMPS,ioos:station:USF.COMPS:FHP:1,2011-11-02T05:24:00Z,28.1530,-82.8010,1.369,1111122 
COMPS,ioos:station:USF.COMPS:FHP:1,2011-11-02T05:30:00Z,28.1530,-82.8010,1.38,1111122 
COMPS,ioos:station:USF.COMPS:FHP:1,2011-11-02T05:36:00Z,28.1530,-82.8010,1.387,1111122 
COMPS,ioos:station:USF.COMPS:FHP:1,2011-11-02T05:42:00Z,28.1530,-82.8010,1.401,1111122 
COMPS,ioos:station:USF.COMPS:FHP:1,2011-11-02T05:48:00Z,28.1530,-82.8010,1.412,1111122 
COMPS,ioos:station:USF.COMPS:FHP:1,2011-11-02T05:54:00Z,28.1530,-82.8010,1.428,1111122 
COMPS,ioos:station:USF.COMPS:FHP:1,2011-11-02T06:00:00Z,28.1530,-82.8010,1.442,1111122 
COMPS,ioos:station:USF.COMPS:FHP:1,2011-11-02T06:06:00Z,28.1530,-82.8010,1.452,1111122 
COMPS,ioos:station:USF.COMPS:FHP:1,2011-11-02T06:12:00Z,28.1530,-82.8010,1.469,1111122 
COMPS,ioos:station:USF.COMPS:FHP:1,2011-11-02T06:18:00Z,28.1530,-82.8010,1.477,1111122 
COMPS,ioos:station:USF.COMPS:FHP:1,2011-11-02T06:24:00Z,28.1530,-82.8010,1.493,1111122 
COMPS,ioos:station:USF.COMPS:FHP:1,2011-11-02T06:30:00Z,28.1530,-82.8010,1.496,1111122 
COMPS,ioos:station:USF.COMPS:FHP:1,2011-11-02T06:36:00Z,28.1530,-82.8010,1.512,1111122 
COMPS,ioos:station:USF.COMPS:FHP:1,2011-11-02T06:42:00Z,28.1530,-82.8010,1.518,1111122 
COMPS,ioos:station:USF.COMPS:FHP:1,2011-11-02T06:48:00Z,28.1530,-82.8010,1.53,1111122 
COMPS,ioos:station:USF.COMPS:FHP:1,2011-11-02T06:54:00Z,28.1530,-82.8010,1.541,1111122 
COMPS,ioos:station:USF.COMPS:FHP:1,2011-11-02T07:00:00Z,28.1530,-82.8010,1.544,1111122 
COMPS,ioos:station:USF.COMPS:FHP:1,2011-11-02T07:06:00Z,28.1530,-82.8010,1.558,1111122 
COMPS,ioos:station:USF.COMPS:FHP:1,2011-11-02T07:12:00Z,28.1530,-82.8010,1.567,1111122 
COMPS,ioos:station:USF.COMPS:FHP:1,2011-11-02T07:18:00Z,28.1530,-82.8010,1.578,1111122 
COMPS,ioos:station:USF.COMPS:FHP:1,2011-11-02T07:24:00Z,28.1530,-82.8010,1.588,1111122 
COMPS,ioos:station:USF.COMPS:FHP:1,2011-11-02T07:30:00Z,28.1530,-82.8010,1.598,1111122 
COMPS,ioos:station:USF.COMPS:FHP:1,2011-11-02T07:36:00Z,28.1530,-82.8010,1.601,1111122 
COMPS,ioos:station:USF.COMPS:FHP:1,2011-11-02T07:48:00Z,28.1530,-82.8010,1.622,1111122 
COMPS,ioos:station:USF.COMPS:FHP:1,2011-11-02T07:54:00Z,28.1530,-82.8010,1.63,1111122 
COMPS,ioos:station:USF.COMPS:FHP:1,2011-11-02T08:06:00Z,28.1530,-82.8010,1.65,1111122 
COMPS,ioos:station:USF.COMPS:FHP:1,2011-11-02T08:12:00Z,28.1530,-82.8010,1.653,1111122 
COMPS,ioos:station:USF.COMPS:FHP:1,2011-11-02T08:24:00Z,28.1530,-82.8010,1.663,1111122 
COMPS,ioos:station:USF.COMPS:FHP:1,2011-11-02T08:30:00Z,28.1530,-82.8010,1.67,1111122 
COMPS,ioos:station:USF.COMPS:FHP:1,2011-11-02T08:36:00Z,28.1530,-82.8010,1.674,1111122 
COMPS,ioos:station:USF.COMPS:FHP:1,2011-11-02T08:54:00Z,28.1530,-82.8010,1.671,1111122 
COMPS,ioos:station:USF.COMPS:FHP:1,2011-11-02T10:00:00Z,28.1530,-82.8010,1.654,1111122 
COMPS,ioos:station:USF.COMPS:FHP:1,2011-11-02T10:06:00Z,28.1530,-82.8010,1.657,1111122 
COMPS,ioos:station:USF.COMPS:FHP:1,2011-11-02T10:12:00Z,28.1530,-82.8010,1.654,1111122 
COMPS,ioos:station:USF.COMPS:FHP:1,2011-11-02T10:18:00Z,28.1530,-82.8010,1.654,1111122 
COMPS,ioos:station:USF.COMPS:FHP:1,2011-11-02T10:24:00Z,28.1530,-82.8010,1.654,1111122 
COMPS,ioos:station:USF.COMPS:FHP:1,2011-11-02T10:30:00Z,28.1530,-82.8010,1.643,1111122 
COMPS,ioos:station:USF.COMPS:FHP:1,2011-11-02T10:36:00Z,28.1530,-82.8010,1.643,1111122 
COMPS,ioos:station:USF.COMPS:FHP:1,2011-11-02T10:42:00Z,28.1530,-82.8010,1.64,1111122 
COMPS,ioos:station:USF.COMPS:FHP:1,2011-11-02T10:48:00Z,28.1530,-82.8010,1.63,1111122 
COMPS,ioos:station:USF.COMPS:FHP:1,2011-11-02T10:54:00Z,28.1530,-82.8010,1.626,1111122 
COMPS,ioos:station:USF.COMPS:FHP:1,2011-11-02T11:00:00Z,28.1530,-82.8010,1.615,1111122 
COMPS,ioos:station:USF.COMPS:FHP:1,2011-11-02T11:06:00Z,28.1530,-82.8010,1.603,1111122 
COMPS,ioos:station:USF.COMPS:FHP:1,2011-11-02T11:12:00Z,28.1530,-82.8010,1.589,1111122 
COMPS,ioos:station:USF.COMPS:FHP:1,2011-11-02T11:18:00Z,28.1530,-82.8010,1.576,1111122 
COMPS,ioos:station:USF.COMPS:FHP:1,2011-11-02T11:24:00Z,28.1530,-82.8010,1.559,1111122 
COMPS,ioos:station:USF.COMPS:FHP:1,2011-11-02T11:30:00Z,28.1530,-82.8010,1.546,1111122 
COMPS,ioos:station:USF.COMPS:FHP:1,2011-11-02T11:36:00Z,28.1530,-82.8010,1.527,1111122 
COMPS,ioos:station:USF.COMPS:FHP:1,2011-11-02T11:42:00Z,28.1530,-82.8010,1.522,1111122 
COMPS,ioos:station:USF.COMPS:FHP:1,2011-11-02T11:48:00Z,28.1530,-82.8010,1.507,1111122 
COMPS,ioos:station:USF.COMPS:FHP:1,2011-11-02T11:54:00Z,28.1530,-82.8010,1.497,1111122 
COMPS,ioos:station:USF.COMPS:FHP:1,2011-11-02T13:00:00Z,28.1530,-82.8010,1.385,1111122 
COMPS,ioos:station:USF.COMPS:FHP:1,2011-11-02T13:06:00Z,28.1530,-82.8010,1.376,1111122 
COMPS,ioos:station:USF.COMPS:FHP:1,2011-11-02T13:12:00Z,28.1530,-82.8010,1.361,1111122 
COMPS,ioos:station:USF.COMPS:FHP:1,2011-11-02T13:18:00Z,28.1530,-82.8010,1.353,1111122 
COMPS,ioos:station:USF.COMPS:FHP:1,2011-11-02T13:24:00Z,28.1530,-82.8010,1.341,1111122 
COMPS,ioos:station:USF.COMPS:FHP:1,2011-11-02T13:30:00Z,28.1530,-82.8010,1.324,1111122 
COMPS,ioos:station:USF.COMPS:FHP:1,2011-11-02T13:36:00Z,28.1530,-82.8010,1.319,1111122 
COMPS,ioos:station:USF.COMPS:FHP:1,2011-11-02T13:42:00Z,28.1530,-82.8010,1.307,1111122 
COMPS,ioos:station:USF.COMPS:FHP:1,2011-11-02T13:48:00Z,28.1530,-82.8010,1.296,1111122 
COMPS,ioos:station:USF.COMPS:FHP:1,2011-11-02T13:54:00Z,28.1530,-82.8010,1.282,1111122 
COMPS,ioos:station:USF.COMPS:FHP:1,2011-11-02T14:00:00Z,28.1530,-82.8010,1.271,1111122 
COMPS,ioos:station:USF.COMPS:FHP:1,2011-11-02T14:06:00Z,28.1530,-82.8010,1.261,1111122 
COMPS,ioos:station:USF.COMPS:FHP:1,2011-11-02T14:12:00Z,28.1530,-82.8010,1.249,1111122 